KC0VVH Weather Reports


time (UTC)temp
F
wind
direction
speed
knots
gust
knots
rain 1hr
in
rain 24hr
in
rain mn
in
humidity
%
barometer
mb
20260904221811 89 181 2.6 8.7 0.00 0.00 0.00 20 1016.5
20260904220911 89 184 0.0 4.3 0.00 0.00 0.00 24 1016.5
20260904220011 89 58 0.9 5.2 0.00 0.00 0.00 26 1016.5
20260904215411 89 60 1.7 5.2 0.00 0.00 0.00 27 1016.5
20260904214511 86 61 0.9 5.2 0.00 0.00 0.00 27 1016.5
20260904213632 86 0 0.0 0.0 0.00 0.00 0.00 28 1016.5
20260904212711 86 0 0.0 0.9 0.00 0.00 0.00 28 1016.5
20260904211811 86 0 0.0 0.0 0.00 0.00 0.00 28 1016.5
20260904210911 85 61 0.0 3.5 0.00 0.00 0.00 30 1016.5
20260904210011 85 61 0.9 4.3 0.00 0.00 0.00 29 1016.5
20260904205411 86 61 0.0 3.5 0.00 0.00 0.00 29 1016.5
20260904204532 86 56 0.9 7.0 0.00 0.00 0.00 29 1016.5
20260904203632 86 27 0.9 3.5 0.00 0.00 0.00 29 1016.5
20260904202711 86 24 0.9 7.0 0.00 0.00 0.00 28 1016.5
20260904201811 87 27 0.9 5.2 0.00 0.00 0.00 27 1016.5
20260904200932 86 26 0.9 5.2 0.00 0.00 0.00 29 1016.5
20260904200032 85 26 0.9 5.2 0.00 0.00 0.00 30 1016.5
20260904195411 85 28 1.7 7.0 0.00 0.00 0.00 28 1016.5
20260904194532 85 46 1.7 7.0 0.00 0.00 0.00 29 1016.5
20260904193632 85 24 0.9 4.3 0.00 0.00 0.00 29 1016.5
20260904192711 84 319 2.6 8.7 0.00 0.00 0.00 28 1016.5
20260904191811 84 307 1.7 8.7 0.00 0.00 0.00 29 1016.5
20260904190932 84 322 0.9 5.2 0.00 0.00 0.00 29 1016.5
20260904190011 85 15 0.9 8.7 0.00 0.00 0.00 28 1016.5
20260904185411 85 10 2.6 8.7 0.00 0.00 0.00 29 1016.5
20260904184511 85 343 0.9 4.3 0.00 0.00 0.00 29 1016.5
20260904183611 86 3 0.9 4.3 0.00 0.00 0.00 27 1016.5
20260904182711 86 360 0.9 4.3 0.00 0.00 0.00 26 1016.5
20260904181811 86 351 1.7 6.1 0.00 0.00 0.00 27 1016.5
20260904180932 87 2 1.7 5.2 0.00 0.00 0.00 26 1016.5
20260904180011 86 267 1.7 8.7 0.00 0.00 0.00 27 1016.5
20260904175411 85 183 0.9 6.1 0.00 0.00 0.00 28 1016.5
20260904174532 83 180 0.0 3.5 0.00 0.00 0.00 29 1016.5
20260904173611 82 181 0.9 4.3 0.00 0.00 0.00 28 1016.5
20260904172711 83 185 3.5 8.7 0.00 0.00 0.00 28 1016.5
20260904171811 84 77 3.5 11.3 0.00 0.00 0.00 28 1016.5
20260904170911 84 69 4.3 8.7 0.00 0.00 0.00 30 1016.5
20260904170011 83 70 4.3 9.6 0.00 0.00 0.00 30 1016.5
20260904165411 83 66 3.5 9.6 0.00 0.00 0.00 30 1016.5
20260904164532 82 67 5.2 9.6 0.00 0.00 0.00 31 1016.5
20260904163611 82 67 4.3 13.0 0.00 0.00 0.00 31 1016.5
20260904162711 82 62 4.3 9.6 0.00 0.00 0.00 31 1016.5
20260904161811 82 63 4.3 10.4 0.00 0.00 0.00 33 1016.5
20260904160911 82 65 4.3 9.6 0.00 0.00 0.00 33 1016.5
20260904160011 81 59 2.6 8.7 0.00 0.00 0.00 33 1016.5
20260904155432 81 69 2.6 7.8 0.00 0.00 0.00 34 1016.5
20260904154511 80 70 3.5 9.6 0.00 0.00 0.00 33 1016.5
20260904153611 80 68 4.3 7.8 0.00 0.00 0.00 35 1016.5
20260904152711 80 72 3.5 7.8 0.00 0.00 0.00 35 1016.5
20260904151832 79 74 2.6 6.1 0.00 0.00 0.00 35 1016.5
20260904150932 79 76 1.7 6.1 0.00 0.00 0.00 37 1016.5
20260904150011 79 141 0.0 3.5 0.00 0.00 0.00 36 1016.5
20260904145411 79 141 0.0 3.5 0.00 0.00 0.00 36 1016.5
20260904144532 78 0 0.0 0.9 0.00 0.00 0.00 36 1016.5
20260904143611 77 208 0.0 4.3 0.00 0.00 0.00 35 1016.5
20260904142711 76 181 0.0 4.3 0.00 0.00 0.00 34 1016.5
20260904141832 76 186 0.9 5.2 0.00 0.00 0.00 35 1016.5
20260904140932 75 199 0.9 6.1 0.00 0.00 0.00 35 1016.5
20260904140011 74 190 2.6 7.0 0.00 0.00 0.00 36 1016.5
20260904135411 73 199 2.6 8.7 0.00 0.00 0.00 36 1016.5
20260904134511 72 195 3.5 8.7 0.00 0.00 0.00 36 1016.5
20260904133632 72 193 3.5 7.0 0.00 0.00 0.00 37 1016.5
20260904132732 71 204 1.7 7.8 0.00 0.00 0.00 37 1016.5
20260904131811 71 219 0.9 6.1 0.00 0.00 0.00 37 1016.5
20260904130911 71 210 2.6 9.6 0.00 0.00 0.00 37 1016.5
20260904130011 72 208 2.6 9.6 0.00 0.00 0.00 37 1016.5
20260904125432 72 217 1.7 7.0 0.00 0.00 0.00 36 1016.5
20260904124511 73 206 1.7 7.0 0.00 0.00 0.00 35 1016.5
20260904123633 73 205 1.7 7.0 0.00 0.00 0.00 34 1016.5
20260904122711 73 205 1.7 6.1 0.00 0.00 0.00 34 1016.5
20260904121811 73 204 1.7 7.0 0.00 0.00 0.00 35 1016.5
20260904120911 72 202 1.7 7.8 0.00 0.00 0.00 35 1016.5
20260904120011 73 202 1.7 6.1 0.00 0.00 0.00 35 1016.5
20260904115411 73 204 1.7 7.0 0.00 0.00 0.00 35 1016.5
20260904114511 73 210 0.9 7.8 0.00 0.00 0.00 35 1016.5
20260904113611 73 201 2.6 9.6 0.00 0.00 0.00 35 1016.5
20260904112711 73 205 1.7 9.6 0.00 0.00 0.00 34 1016.5
20260904111832 73 218 0.9 6.1 0.00 0.00 0.00 35 1016.5
20260904110911 73 199 2.6 7.0 0.00 0.00 0.00 34 1016.5
20260904110011 73 207 2.6 7.0 0.00 0.00 0.00 34 1016.5
20260904105411 73 203 1.7 7.0 0.00 0.00 0.00 34 1016.5
20260904104511 73 215 0.9 5.2 0.00 0.00 0.00 34 1016.5
20260904103611 73 224 1.7 8.7 0.00 0.00 0.00 33 1016.5
20260904102711 73 225 1.7 7.8 0.00 0.00 0.00 33 1016.5
20260904101811 74 214 0.9 6.1 0.00 0.00 0.00 33 1016.5
20260904100911 74 205 2.6 9.6 0.00 0.00 0.00 33 1016.5
20260904100011 74 207 1.7 10.4 0.00 0.00 0.00 32 1016.5
20260904095411 74 208 1.7 7.8 0.00 0.00 0.00 32 1016.5
20260904094511 74 204 2.6 7.8 0.00 0.00 0.00 32 1016.5
20260904093611 74 208 3.5 8.7 0.00 0.00 0.00 32 1016.5
20260904092711 75 213 3.5 7.8 0.00 0.00 0.00 31 1016.5
20260904091811 75 205 2.6 7.0 0.00 0.00 0.00 31 1016.5
20260904090911 75 209 2.6 7.0 0.00 0.00 0.00 31 1016.5
20260904090011 75 215 2.6 7.8 0.00 0.00 0.00 31 1016.5
20260904085411 75 216 2.6 7.8 0.00 0.00 0.00 31 1016.5
20260904084511 75 226 2.6 7.0 0.00 0.00 0.00 31 1016.5
20260904083611 75 226 2.6 6.1 0.00 0.00 0.00 31 1016.5
20260904082711 75 224 2.6 6.1 0.00 0.00 0.00 31 1016.5
20260904081811 75 213 2.6 7.8 0.00 0.00 0.00 31 1016.5
20260904080911 75 215 1.7 7.0 0.00 0.00 0.00 31 1016.5
20260904080032 75 206 1.7 7.0 0.00 0.00 0.00 31 1016.5
20260904075411 75 221 1.7 7.0 0.00 0.00 0.00 31 1016.5
20260904074511 74 221 0.9 7.0 0.00 0.00 0.00 32 1016.5
20260904073611 73 0 0.0 0.0 0.00 0.00 0.00 34 1016.5
20260904072711 74 156 0.0 5.2 0.00 0.00 0.00 32 1016.5
20260904071811 75 193 2.6 8.7 0.00 0.00 0.00 31 1016.5
20260904070911 75 206 3.5 10.4 0.00 0.00 0.00 30 1016.5
20260904070032 75 223 2.6 7.0 0.00 0.00 0.00 31 1016.5
20260904065411 75 221 3.5 8.7 0.00 0.00 0.00 30 1016.5
20260904064511 75 209 4.3 8.7 0.00 0.00 0.00 30 1016.5
20260904063611 75 205 5.2 7.8 0.00 0.00 0.00 30 1016.5
20260904062711 76 221 3.5 7.8 0.00 0.00 0.00 30 1016.5
20260904061811 76 238 3.5 8.7 0.00 0.00 0.00 29 1016.5
20260904060911 76 247 2.6 7.0 0.00 0.00 0.00 28 1016.5
20260904060012 76 237 2.6 7.8 0.00 0.00 0.00 29 1016.5
20260904055411 76 228 1.7 6.1 0.00 0.00 0.00 29 1016.5
20260904054511 76 227 1.7 6.1 0.00 0.00 0.00 29 1016.5
20260904053632 76 227 1.7 6.1 0.00 0.00 0.00 29 1016.5
20260904052711 76 227 1.7 6.1 0.00 0.00 0.00 29 1016.5
20260904051811 76 225 2.6 7.0 0.00 0.00 0.00 28 1016.5
20260904050911 76 225 2.6 7.0 0.00 0.00 0.00 29 1016.5
20260904050011 77 226 1.7 6.1 0.00 0.00 0.00 28 1016.5
20260904045411 77 226 0.9 5.2 0.00 0.00 0.00 28 1016.5
20260904044511 78 227 2.6 6.1 0.00 0.00 0.00 27 1016.5
20260904043611 78 227 2.6 6.1 0.00 0.00 0.00 27 1016.5
20260904042711 78 226 3.5 7.8 0.00 0.00 0.00 26 1016.5
20260904041811 77 229 2.6 7.0 0.00 0.00 0.00 27 1016.5
20260904040911 78 225 2.6 6.1 0.00 0.00 0.00 27 1016.5
20260904040032 77 237 2.6 10.4 0.00 0.00 0.00 28 1016.5
20260904035432 77 243 1.7 6.1 0.00 0.00 0.00 28 1016.5
20260904034511 77 244 0.9 3.5 0.00 0.00 0.00 28 1016.5
20260904033611 77 0 0.0 0.0 0.00 0.00 0.00 28 1016.5
20260904032732 77 244 0.9 3.5 0.00 0.00 0.00 27 1016.5
20260904031832 78 244 0.9 7.0 0.00 0.00 0.00 29 1016.5
20260904030911 78 244 1.7 4.3 0.00 0.00 0.00 28 1016.5
20260904030011 78 243 0.9 4.3 0.00 0.00 0.00 27 1016.5
20260904025432 78 241 1.7 4.3 0.00 0.00 0.00 27 1016.5
20260904024511 78 229 2.6 7.8 0.00 0.00 0.00 25 1016.5
20260904023632 78 226 1.7 9.6 0.00 0.00 0.00 25 1016.5
20260904022711 78 240 1.7 6.1 0.00 0.00 0.00 25 1016.5
20260904021811 78 206 0.9 6.1 0.00 0.00 0.00 26 1016.5
20260904020911 79 138 0.9 2.6 0.00 0.00 0.00 26 1016.5
20260904020011 78 90 0.9 5.2 0.00 0.00 0.00 27 1016.5
20260904015411 78 62 0.0 5.2 0.00 0.00 0.00 27 1016.5
20260904014511 78 61 0.0 1.7 0.00 0.00 0.00 26 1016.5
20260904013611 78 0 0.0 0.0 0.00 0.03 0.00 27 1016.5
20260904012732 79 0 0.0 0.0 0.00 0.03 0.00 28 1016.5
20260904011811 80 0 0.0 0.0 0.00 0.03 0.00 26 1016.5
20260904010911 81 0 0.0 0.9 0.00 0.03 0.00 24 1016.5
20260904010011 82 0 0.0 0.0 0.00 0.03 0.00 20 1016.5
20260904005411 83 0 0.0 0.0 0.00 0.03 0.00 20 1016.5
20260904004512 83 0 0.0 0.0 0.00 0.03 0.00 21 1016.5
20260904003633 83 60 0.9 3.5 0.00 0.03 0.00 21 1016.5
20260904002732 83 60 0.0 3.5 0.00 0.03 0.00 23 1016.5
20260904001811 84 60 0.0 3.5 0.00 0.03 0.00 22 1016.5
20260904000911 84 60 0.0 0.9 0.00 0.03 0.00 21 1016.5
20260904000011 83 0 0.0 0.0 0.00 0.03 0.00 24 1016.5
20260903235411 82 0 0.0 0.0 0.00 0.03 0.00 24 1016.5
20260903234511 83 60 0.9 3.5 0.00 0.03 0.00 24 1016.5
20260903233611 83 0 0.0 0.0 0.00 0.03 0.00 22 1016.5
20260903232712 84 60 0.9 4.3 0.00 0.03 0.00 21 1016.5
20260903231811 84 60 0.9 4.3 0.00 0.03 0.00 22 1016.5
20260903230911 84 60 0.9 3.5 0.00 0.03 0.00 23 1016.5
20260903230011 83 60 1.7 5.2 0.00 0.03 0.00 23 1016.5
20260903225411 83 61 0.9 4.3 0.00 0.03 0.00 23 1016.5
20260903224533 84 61 0.9 4.3 0.00 0.03 0.00 22 1016.5
20260903223611 84 58 1.7 5.2 0.00 0.03 0.00 21 1016.5
20260903222711 86 31 2.6 6.1 0.00 0.03 0.00 21 1016.5